TimeCST,TemperatureF,Dew PointF,Humidity,Sea Level PressureIn,VisibilityMPH,Wind Direction,Wind SpeedMPH,Gust SpeedMPH,PrecipitationIn,Events,Conditions,WindDirDegrees,DateUTC
12:00 AM,66.2,62.6,88,29.97,-9999.0,Calm,Calm,-,N/A,,Clear,0,2012-10-26 06:00:00
1:00 AM,66.2,62.6,88,29.95,-9999.0,NNE,2.3,-,N/A,,Clear,30,2012-10-26 07:00:00
2:00 AM,64.4,62.6,94,29.94,-9999.0,Calm,Calm,-,N/A,,Clear,0,2012-10-26 08:00:00
3:00 AM,65,63,92,29.83,12,East,4.6,,,,Mostly Cloudy,100,2012-10-26 09:00:00
3:00 AM,64.4,62.6,94,29.92,-9999.0,East,4.6,-,N/A,,Clear,100,2012-10-26 09:00:00
4:00 AM,64.4,60.8,88,29.93,-9999.0,East,5.8,-,N/A,,Clear,80,2012-10-26 10:00:00
5:00 AM,66.2,62.6,88,29.94,-9999.0,NE,5.8,-,N/A,,Clear,50,2012-10-26 11:00:00
6:00 AM,66,62,83,29.87,12,East,3.5,,,,Overcast,90,2012-10-26 12:00:00
6:00 AM,66.2,62.6,88,29.97,-9999.0,East,3.5,-,N/A,,Clear,90,2012-10-26 12:00:00
7:00 AM,68.0,62.6,83,29.99,6.2,East,3.5,-,N/A,,Mostly Cloudy,100,2012-10-26 13:00:00
8:00 AM,71.6,64.4,78,30.02,6.2,WSW,1.2,-,N/A,,Mostly Cloudy,240,2012-10-26 14:00:00
9:00 AM,72,64,69,29.89,12,West,3.5,,,,Scattered Clouds,260,2012-10-26 15:00:00
9:00 AM,71.6,64.4,78,30.03,6.2,West,3.5,-,N/A,,Mostly Cloudy,260,2012-10-26 15:00:00
10:00 AM,75.2,66.2,73,30.03,6.2,West,5.8,-,N/A,,Mostly Cloudy,270,2012-10-26 16:00:00
11:00 AM,75.2,66.2,73,30.00,6.2,West,6.9,-,N/A,,Mostly Cloudy,260,2012-10-26 17:00:00
12:00 PM,77,65,58,29.83,12,WSW,8.1,,,,Mostly Cloudy,250,2012-10-26 18:00:00
12:00 PM,77.0,64.4,65,29.98,6.2,WSW,8.1,-,N/A,,Mostly Cloudy,250,2012-10-26 18:00:00
1:00 PM,77.0,68.0,74,29.95,6.2,WSW,10.4,-,N/A,,Mostly Cloudy,250,2012-10-26 19:00:00
2:00 PM,77.0,68.0,74,29.92,6.2,SW,9.2,-,N/A,,Scattered Clouds,220,2012-10-26 20:00:00
3:00 PM,75,67,70,29.78,12,SSW,6.9,,,,Mostly Cloudy,200,2012-10-26 21:00:00
3:00 PM,75.2,68.0,78,29.92,6.2,SSW,6.9,-,N/A,,Scattered Clouds,200,2012-10-26 21:00:00
4:00 PM,73.4,68.0,83,29.93,6.2,SW,8.1,-,N/A,,Scattered Clouds,230,2012-10-26 22:00:00
5:00 PM,69.8,68.0,94,29.94,6.2,WSW,9.2,-,N/A,Rain,Light Rain,250,2012-10-26 23:00:00
5:26 PM,69.8,68.0,94,29.95,5.0,WSW,6.9,-,N/A,,Mostly Cloudy,250,2012-10-26 23:26:00
6:00 PM,69,67,90,29.83,2,WSW,8.1,,,,Mist,250,2012-10-27 00:00:00
6:00 PM,69.8,66.2,88,29.95,3.1,WSW,8.1,-,N/A,,Mostly Cloudy,250,2012-10-27 00:00:00
6:30 PM,68.0,66.2,94,29.97,0.9,West,4.6,-,N/A,,Mist,260,2012-10-27 00:30:00
7:00 PM,68.0,66.2,94,29.99,0.9,WSW,4.6,-,N/A,,Drizzle,250,2012-10-27 01:00:00
7:10 PM,68.0,66.2,94,29.99,0.5,West,4.6,-,N/A,Fog,Light Drizzle,270,2012-10-27 01:10:00
7:20 PM,68.0,66.2,94,29.99,0.1,West,4.6,-,N/A,Fog,Fog,260,2012-10-27 01:20:00
7:48 PM,68.0,66.2,94,29.99,0.7,West,3.5,-,N/A,,Mostly Cloudy,260,2012-10-27 01:48:00
8:00 PM,68.0,66.2,94,30.00,1.2,WSW,2.3,-,N/A,,Mostly Cloudy,240,2012-10-27 02:00:00
8:22 PM,68.0,66.2,94,30.01,0.6,West,3.5,-,N/A,,Mostly Cloudy,260,2012-10-27 02:22:00
9:00 PM,68,66,92,29.86,1,WSW,3.5,,,,Mist,240,2012-10-27 03:00:00
9:00 PM,68.0,66.2,94,30.01,0.6,WSW,3.5,-,N/A,,Mostly Cloudy,240,2012-10-27 03:00:00
9:10 PM,68.0,66.2,94,30.01,0.3,WSW,3.5,-,N/A,Fog,Fog,240,2012-10-27 03:10:00
10:00 PM,68.0,66.2,94,30.01,1.2,Calm,Calm,-,N/A,,Mostly Cloudy,0,2012-10-27 04:00:00
11:00 PM,68.0,66.2,94,30.00,0.9,Calm,Calm,-,N/A,,Mostly Cloudy,0,2012-10-27 05:00:00